Regional Weather Roundup
Issued by NWS

Home | Current Version | Previous Version | Graphics & Text | Print | Product List | Glossary On
Versions: 1 2 3 4 5 6 7 8 9 10 11 12 13 14 15 16 17 18 19 20 21 22 23 24 25 26 27 28 29 30 31 32 33 34 35 36 37 38 39 40 41 42 43 44 45 46 47 48 49 50
000
ASUS43 KIND 292309
RWRIN

WEATHER ROUNDUP FOR INDIANA
NATIONAL WEATHER SERVICE INDIANAPOLIS IN
700 PM EDT FRI JUL 29 2016

NOTE: "FAIR" INDICATES FEW OR NO CLOUDS BELOW 12,000 FEET WITH NO
SIGNIFICANT WEATHER AND/OR OBSTRUCTIONS TO VISIBILITY.

* - STATION DOES NOT REPORT WEATHER SUCH AS PRECIPITATION OR FOG.

+ - STATION NOT QUALITY CONTROLLED BY THE NATIONAL WEATHER SERVICE.
    USE DATA WITH CAUTION...ESPECIALLY DEWPOINT AND RELATIVE
    HUMIDITY OBSERVATIONS.

INZ001>003-010>013-019-020-300000-
NORTHWEST INDIANA

CITY           SKY/WX    TMP DP  RH WIND       PRES   REMARKS
GARY /AIRPORT/ PTSUNNY   72  70  94 CALM      29.92F
KNOX *+        CLOUDY    73  63  68 N5        29.91R
LA PORTE +     CLOUDY    73  73 100 N6        29.93S
MICHIGAN CITY+ CLOUDY    68  68 100 MISG      29.94R
MONTICELLO +   MOSUNNY   78  66  67 NE7       29.90R
RENSSELAER +   MOSUNNY   75  68  78 N6        29.91F
VALPARAISO     CLOUDY    71  65  81 CALM      29.93S

$$

LMZ046-743>745-300000-
SOUTHERN LAKE MICHIGAN

STATION/POSITION TIME  TEMP    WIND        PRES    WAVE
                       AIR SEA DIR/SP/G            HT
                 (UTC) (F)     (DEG/KT/KT) (MB)    (FT)
BURNS HARBOR     2302   71      20/  3/ 12 1013.9S
MICHIGAN CITY    2200   69     120/  4/  5   N/A
5NW MICH CITY    2300   71 77  350/  8/ 10   N/A     2

$$

INZ004-005-014>016-021>024-300000-
NORTH CENTRAL INDIANA

CITY           SKY/WX    TMP DP  RH WIND       PRES   REMARKS
ELKHART        PTSUNNY   75  66  73 E6        29.92F
GOSHEN         CLOUDY    77  68  73 NE9       29.92S
LOGANSPORT +   MOSUNNY   79  68  69 NE6       29.91R
PERU/GRISSOM   CLOUDY    76  69  78 NE3       29.90R
ROCHESTER +    CLOUDY    77  72  83 NE3       29.92R
SOUTH BEND     CLOUDY    73  68  84 NE6       29.91F
WARSAW +       CLOUDY    77  70  78 NE7       29.91R

$$

INZ006>009-017-018-025>027-300000-
NORTHEAST INDIANA

CITY           SKY/WX    TMP DP  RH WIND       PRES   REMARKS
ANGOLA *+        N/A     75  70  83 NE7       29.92F
AUBURN +       CLOUDY    79  64  61 NE8       29.92R
FORT WAYNE     TSTM      72  69  90 S18G28    29.93R FOG
HUNTINGTON +   HVY RAIN  68  67  95 E8G18     29.92F

$$

INZ028-029-035-036-043>045-051>053-300000-
WEST CENTRAL INDIANA

CITY           SKY/WX    TMP DP  RH WIND       PRES   REMARKS
CRAWFORDSVL +  SUNNY     77  71  83 SW5       29.91S
GREENCASTLE +  MOSUNNY   79  75  89 CALM      29.91S
LAFAYETTE      PTSUNNY   81  72  74 NW3       29.89R
TERRE HAUTE    PTSUNNY   82  72  71 W6        29.89F

$$

INZ030>032-037>040-046>048-054>057-064-065-300000-
CENTRAL INDIANA

CITY           SKY/WX    TMP DP  RH WIND       PRES   REMARKS
COLUMBUS       MOSUNNY   77  73  88 CALM      29.89S
INDIANAPOLIS   LGT RAIN  78  70  76 S6G17     29.89F
-EAGLE CREEK   PTSUNNY   81  68  64 NW12G22   29.88S
KOKOMO *+      CLOUDY    75  66  73 SE5       29.92R
MARION +       CLOUDY    71  69  93 NE7       29.93R
MT COMFORT *+  CLOUDY    70  68  94 W6        29.91S
SHELBYVILLE    PTSUNNY   81  68  64 SW7       29.89F
ZIONSVILLE +   LGT RAIN  71  67  87 NW3       29.91S

$$

INZ033-034-041-042-049-050-058-059-300000-
EAST CENTRAL INDIANA

CITY           SKY/WX    TMP DP  RH WIND       PRES   REMARKS
MUNCIE         CLOUDY    80  69  69 NW12G18   29.92R

$$

INZ060-061-067>069-081>083-085>088-300000-
SOUTHWEST INDIANA

CITY           SKY/WX    TMP DP  RH WIND       PRES   REMARKS
EVANSVILLE     SUNNY     77  71  82 NW3       29.90F
HUNTINGBURG *+ MOSUNNY   75  72  88 W6        29.90F
WASHINGTON +   CLOUDY    78  72  82 MISG      29.89S

$$

INZ062-063-066-070>080-084-089>092-300000-
SOUTH CENTRAL AND SOUTHEAST INDIANA

CITY           SKY/WX    TMP DP  RH WIND       PRES   REMARKS
BLOOMINGTON    MOSUNNY   79  69  71 W6        29.90F
MADISON *+     MOSUNNY   81  70  69 SW10      29.92R
NORTH VERNON + MOSUNNY   84  77  79 W5        29.90S
SEYMOUR +      MOSUNNY   84  72  65 CALM      29.88F

$$





USA.gov is the U.S. government's official web portal to all federal, state and local government web resources and services.